Showing default

OPS 1117 (TRANSIT 12), 2119

Orbit data source: Space-Track

OPS 1117 (TRANSIT 12), 2119 is a payload satellite owned by USN BuWeps (US) in LEO that was launched on Sat, 26 Mar 1966 UTC via an SCOUT A launch vehicle from the Air Force Western Test Range (AFWTR). Payload-class satellites include a variety of spacecraft equipped with specific instruments for various scientific and technological missions. These include communications satellites like Starlink; space stations such as the ISS; scientific satellites like the Hubble; Earth observation satellites from companies like Planet Labs, Umbra, and HawkEye 360; GPS; miniature CubeSats for education and research; and military/defense satellites.

Loading next visibility...
Identifier
2119, 1966-024A
Orbit
LEO
Country
Flag of USUS
Related business
Manufacturer
APL
Mission
Defense Navigation
Bus & Motor
TRANSIT 5, Unknown motor
Mass
51 kg wet, 51 kg dry
Launch date (UTC)
1966-03-26 (59 years ago)
Launch vehicle
SCOUT A
Launch site
Air Force Western Test Range (AFWTR)
Object type
Payload
Rocket body
Debris
Shape & HBR
Oct Cyl + 4 Pan + 1 Rod, Unknown HBR
Radar Cross Section
7.565 m², Large (>1 m²)

Expand to show TLE details & history
Last TLE update: 15 hours ago

TLE from 15 hours ago
0 OPS 1117 (TRANSIT 12)
1 02119U 66024A   25259.57574438  .00000159  00000-0  14146-3 0  9991
2 02119  89.6059  99.8383 0147265 151.4226 209.5113 13.75297012977571
Epoch: 2025-09-16T13:49Z
TLE epoch observation values (Epoch: 2025-09-16T13:49:04.314Z)
Latitude
-0.00004°
Longitude
-103.19375°
Altitude
1,078.315 km
Speed
7.266 km/s
True Right ascension
06h 39m 21s
True Declination
0° 00' 00"
Sunlit
Object was in daylight at epoch
Visualization orbit readout
Latitude
Unknown
Longitude
Unknown
Altitude
Unknown
Speed
Unknown
Apparent Right ascension
Unknown
Apparent Declination
Unknown
Sunlit
N/A
Visualization observer readout
Local Sidereal Time
21:17:22
Azimuth
Unknown
Elevation
Unknown
Doppler factor
Unknown
Orbital elements
Apogee altitude
1,085.952 km
Perigee altitude
869.303 km
Semi-major axis
7,355.765 km
Eccentricity
0.01473
Inclination
89.6059°
RAAN
99.8383°
Arg. of periapsis
151.4226°
True anomaly
208.69317°
Mean anomaly
209.5113°
Eccentric anomaly
209.10093°
Mean motion
3.44034 °/min
Orbital period
104.64 mins
BSTAR
0.00014146
Loading maneuver chart data...
Computing Atmospheric mass density...
Loading historical data...
Loading historical data...
Loading historical data...
Loading historical data...
Loading historical data...
Loading historical data...
Loading historical data...

Documentation

Showing up to 5 results
|